• In Hungary
  • List of Countries
  • For 7 days
  • Water Temperature
  • Satellite Maps
  • Weather Map
  • News
  • Weather Widgets
  • user-avatar
    Login

    Hourly Weather Proszowice

    Today, 13 December, Wednesday

    Time Temperature Precipitation Wind Pressure Humidity
    00:00 +3°C° 0.1 mm 4 mps 742 mmHg 67%
    01:00 +3°C° 0.1 mm 3 mps 742 mmHg 67%
    02:00 +3°C° 0 mm 3 mps 743 mmHg 68%
    03:00 +2°C° 0 mm 3 mps 743 mmHg 69%
    04:00 +2°C° 0 mm 3 mps 743 mmHg 70%
    05:00 +2°C° 0 mm 3 mps 743 mmHg 72%
    06:00 +2°C° 0 mm 2 mps 744 mmHg 74%
    07:00 +2°C° 0 mm 2 mps 744 mmHg 76%
    08:00 +2°C° 0 mm 2 mps 744 mmHg 74%
    09:00 +3°C° 0 mm 2 mps 745 mmHg 73%
    10:00 +3°C° 0 mm 2 mps 745 mmHg 71%
    11:00 +3°C° 0 mm 2 mps 744 mmHg 69%
    12:00 +3°C° 0 mm 2 mps 744 mmHg 66%
    13:00 +5°C° 0 mm 1 mps 744 mmHg 64%
    14:00 +4°C° 0 mm 1 mps 743 mmHg 67%
    15:00 +3°C° 0 mm 1 mps 743 mmHg 71%
    16:00 +3°C° 0 mm 1 mps 743 mmHg 74%
    17:00 +1°C° 0 mm 2 mps 742 mmHg 76%
    18:00 +1°C° 0 mm 2 mps 742 mmHg 78%
    19:00 -1°C° 0 mm 2 mps 742 mmHg 80%
    20:00 -1°C° 0 mm 2 mps 741 mmHg 80%
    21:00 -1°C° 0 mm 2 mps 740 mmHg 79%
    22:00 -1°C° 0 mm 3 mps 740 mmHg 79%
    23:00 -1°C° 0 mm 3 mps 739 mmHg 77%

    Tomorrow, 14 December, Thursday

    Time Temperature Precipitation Wind Pressure Humidity
    00:00 -1°C° 0 mm 3 mps 738 mmHg 74%
    01:00 -1°C° 0 mm 3 mps 737 mmHg 72%
    02:00 -2°C° 0 mm 4 mps 736 mmHg 70%
    03:00 -2°C° 0 mm 4 mps 735 mmHg 67%
    04:00 -1°C° 0 mm 4 mps 734 mmHg 65%
    05:00 -1°C° 0 mm 4 mps 733 mmHg 64%
    06:00 0°C° 0 mm 4 mps 733 mmHg 63%
    07:00 0°C° 0 mm 4 mps 732 mmHg 62%
    08:00 +1°C° 0.1 mm 5 mps 732 mmHg 62%
    09:00 +2°C° 0.1 mm 6 mps 732 mmHg 61%
    10:00 +3°C° 0.1 mm 7 mps 732 mmHg 61%
    11:00 +4°C° 0 mm 7 mps 732 mmHg 59%
    12:00 +4°C° 0 mm 8 mps 732 mmHg 57%
    13:00 +5°C° 0 mm 9 mps 732 mmHg 55%
    14:00 +2°C° 0 mm 8 mps 733 mmHg 56%
    15:00 +2°C° 0 mm 7 mps 733 mmHg 56%
    16:00 +1°C° 0 mm 6 mps 734 mmHg 56%
    17:00 +1°C° 0 mm 6 mps 734 mmHg 57%
    18:00 0°C° 0 mm 5 mps 734 mmHg 59%
    19:00 0°C° 0 mm 5 mps 735 mmHg 60%
    20:00 -1°C° 0 mm 4 mps 735 mmHg 60%
    21:00 -1°C° 0 mm 4 mps 735 mmHg 60%
    22:00 -1°C° 0 mm 4 mps 735 mmHg 61%
    23:00 -1°C° 0 mm 4 mps 734 mmHg 61%

    Day after tomorrow, 15 December, Friday

    Time Temperature Precipitation Wind Pressure Humidity
    00:00 -1°C° 0 mm 4 mps 733 mmHg 61%
    01:00 -1°C° 0 mm 4 mps 733 mmHg 62%
    02:00 0°C° 0 mm 5 mps 732 mmHg 61%
    03:00 -1°C° 0 mm 6 mps 731 mmHg 61%
    04:00 +1°C° 0 mm 6 mps 730 mmHg 61%
    05:00 +1°C° 0.1 mm 6 mps 729 mmHg 64%
    06:00 +2°C° 0.1 mm 6 mps 729 mmHg 67%
    07:00 +2°C° 0.1 mm 5 mps 728 mmHg 70%
    08:00 +3°C° 0 mm 5 mps 728 mmHg 70%
    09:00 +3°C° 0 mm 6 mps 728 mmHg 71%
    10:00 +4°C° 0 mm 6 mps 728 mmHg 71%
    11:00 +4°C° 0 mm 6 mps 728 mmHg 68%
    12:00 +3°C° 0 mm 6 mps 729 mmHg 65%
    13:00 +3°C° 0 mm 6 mps 729 mmHg 62%
    14:00 +3°C° 0 mm 6 mps 730 mmHg 64%
    15:00 +2°C° 0 mm 6 mps 730 mmHg 66%
    16:00 +1°C° 0 mm 5 mps 731 mmHg 68%
    17:00 +1°C° 0 mm 5 mps 731 mmHg 70%
    18:00 0°C° 0 mm 4 mps 732 mmHg 72%
    19:00 0°C° 0 mm 3 mps 732 mmHg 75%
    20:00 0°C° 0 mm 3 mps 732 mmHg 75%
    21:00 +1°C° 0 mm 2 mps 732 mmHg 75%
    22:00 +1°C° 0 mm 2 mps 732 mmHg 75%
    23:00 +1°C° 0 mm 2 mps 732 mmHg 75%

    16 December, Saturday

    Time Temperature Precipitation Wind Pressure Humidity
    00:00 -1°C° 0 mm 2 mps 732 mmHg 75%
    01:00 -1°C° 0 mm 2 mps 732 mmHg 75%
    02:00 -1°C° 0 mm 2 mps 732 mmHg 75%
    03:00 -1°C° 0 mm 2 mps 733 mmHg 75%
    04:00 -1°C° 0 mm 2 mps 733 mmHg 75%
    05:00 -1°C° 0 mm 2 mps 733 mmHg 75%
    06:00 0°C° 0 mm 3 mps 733 mmHg 76%
    07:00 0°C° 0 mm 3 mps 734 mmHg 76%
    08:00 0°C° 0 mm 3 mps 734 mmHg 75%
    09:00 0°C° 0 mm 4 mps 735 mmHg 74%
    10:00 +1°C° 0 mm 5 mps 735 mmHg 73%
    11:00 +1°C° 0 mm 5 mps 735 mmHg 72%
    12:00 +1°C° 0 mm 5 mps 736 mmHg 71%
    13:00 +2°C° 0 mm 5 mps 736 mmHg 69%
    14:00 +1°C° 0 mm 5 mps 736 mmHg 72%
    15:00 +1°C° 0 mm 4 mps 737 mmHg 74%
    16:00 0°C° 0 mm 4 mps 737 mmHg 77%
    17:00 0°C° 0 mm 4 mps 738 mmHg 77%
    18:00 -1°C° 0 mm 4 mps 739 mmHg 78%
    19:00 -1°C° 0 mm 4 mps 739 mmHg 79%
    20:00 -1°C° 0 mm 4 mps 740 mmHg 79%
    21:00 -1°C° 0 mm 4 mps 740 mmHg 80%
    22:00 -1°C° 0 mm 4 mps 741 mmHg 80%
    23:00 -2°C° 0 mm 4 mps 741 mmHg 81%

    17 December, Sunday

    Time Temperature Precipitation Wind Pressure Humidity
    00:00 -2°C° 0 mm 4 mps 741 mmHg 81%
    01:00 -2°C° 0 mm 4 mps 742 mmHg 82%
    02:00 -2°C° 0 mm 4 mps 742 mmHg 83%
    03:00 -1°C° 0 mm 3 mps 742 mmHg 83%
    04:00 -1°C° 0 mm 3 mps 742 mmHg 84%
    05:00 -2°C° 0 mm 3 mps 743 mmHg 84%
    06:00 -2°C° 0 mm 3 mps 743 mmHg 84%
    07:00 -2°C° 0 mm 3 mps 743 mmHg 84%
    08:00 -1°C° 0 mm 3 mps 744 mmHg 80%
    09:00 -1°C° 0 mm 4 mps 744 mmHg 76%
    10:00 -1°C° 0 mm 4 mps 745 mmHg 72%
    11:00 0°C° 0 mm 4 mps 745 mmHg 71%
    12:00 0°C° 0 mm 4 mps 745 mmHg 70%
    13:00 0°C° 0 mm 4 mps 745 mmHg 68%
    14:00 +1°C° 0 mm 3 mps 745 mmHg 72%
    15:00 0°C° 0 mm 3 mps 746 mmHg 76%
    16:00 +1°C° 0 mm 2 mps 746 mmHg 80%
    17:00 -1°C° 0 mm 2 mps 747 mmHg 83%
    18:00 -1°C° 0 mm 2 mps 747 mmHg 85%
    19:00 -1°C° 0 mm 2 mps 748 mmHg 87%
    20:00 -2°C° 0 mm 2 mps 748 mmHg 88%
    21:00 -2°C° 0 mm 2 mps 748 mmHg 88%
    22:00 -2°C° 0 mm 2 mps 749 mmHg 89%
    23:00 -2°C° 0 mm 2 mps 749 mmHg 88%

    18 December, Monday

    Time Temperature Precipitation Wind Pressure Humidity
    00:00 -2°C° 0 mm 2 mps 749 mmHg 87%
    01:00 -2°C° 0 mm 2 mps 749 mmHg 87%
    02:00 -2°C° 0 mm 2 mps 750 mmHg 85%
    03:00 -2°C° 0 mm 2 mps 750 mmHg 84%
    04:00 -2°C° 0 mm 2 mps 750 mmHg 83%
    05:00 -2°C° 0 mm 2 mps 751 mmHg 83%
    06:00 -2°C° 0 mm 2 mps 751 mmHg 83%
    07:00 -2°C° 0 mm 2 mps 751 mmHg 83%
    08:00 -1°C° 0 mm 2 mps 752 mmHg 80%
    09:00 -1°C° 0 mm 2 mps 752 mmHg 76%
    10:00 +1°C° 0 mm 2 mps 752 mmHg 73%
    11:00 +1°C° 0 mm 2 mps 752 mmHg 71%
    12:00 0°C° 0 mm 3 mps 752 mmHg 68%
    13:00 0°C° 0 mm 3 mps 752 mmHg 66%
    14:00 +1°C° 0 mm 2 mps 752 mmHg 70%
    15:00 -1°C° 0 mm 2 mps 752 mmHg 75%
    16:00 0°C° 0 mm 1 mps 753 mmHg 80%
    17:00 0°C° 0 mm 1 mps 753 mmHg 80%
    18:00 0°C° 0 mm 1 mps 753 mmHg 81%
    19:00 0°C° 0 mm 1 mps 754 mmHg 81%
    20:00 0°C° 0 mm 1 mps 754 mmHg 80%
    21:00 0°C° 0 mm 1 mps 754 mmHg 80%
    22:00 0°C° 0 mm 1 mps 754 mmHg 79%
    23:00 0°C° 0 mm 1 mps 754 mmHg 79%
    Show more